GAOFEN 12-2

Last updated on Tue Nov 21 2023 00:02:25 GMT+0000 (Coordinated Universal Time)

1 48079U 21026A 23324.59742465 .00000565 00000+0 79940-4 0 9993 2 48079 97.9363 313.2059 0001702 95.4507 264.6899 14.80859717142720
UTC large
Height (km)
Speed (km/s)
/
Latitude / Longitude
Inclination (degrees)
Orbital Period (minutes)
Azimuth
Elevation
Range (km)
Doppler Factor

Next 0 passes for location: London (51.5072 / 0.1276)

Sorry there are no passes over London.